Probability
0 0 0 0 0 0 0 0 0 0 0 0 0 0 0 0 0 0 0 0 0 0 0 0 0 0 0 0 0 0 0 0 0 0 0 0 0 1 2 3 2 1 0 0
0 0 0 0 0 0 0 0 0 0 0 0 0 0 0 0 0 0 0 0 0 0 0 0 0 0 0 0 0 0 0 0 0 0 0 0 0 1 2 3 2 1 1 1
0 0 0 0 0 0 0 0 0 0 0 0 0 0 0 0 0 0 0 0 0 0 0 0 0 0 0 0 0 0 0 0 0 0 0 0 0 0 1 2 2 2 1 2
0 0 0 0 0 0 0 0 0 0 0 0 0 0 0 0 0 0 0 0 0 0 0 0 0 0 0 0 0 0 0 0 0 0 0 0 0 0 0 1 1 1 2 2
0 0 0 0 0 0 0 0 0 0 0 0 0 0 0 0 0 0 0 0 0 0 0 0 0 0 0 0 0 0 0 0 0 0 0 0 0 0 0 0 0 1 1 1
0 0 0 0 0 0 0 0 0 0 0 0 0 0 0 0 0 0 0 0 0 0 0 0 0 0 0 0 0 0 0 0 0 0 0 0 0 0 0 0 0 0 0 0
0 0 0 0 0 0 0 0 0 0 0 0 0 0 0 0 0 0 0 0 0 0 0 0 0 0 0 0 0 0 0 0 0 0 0 0 0 0 0 0 0 0 0 0
0 0 0 0 0 0 0 0 0 0 0 0 0 0 0 0 0 0 0 0 0 0 0 0 0 0 0 0 0 0 0 0 0 0 0 0 0 0 0 0 0 0 0 0
0 0 0 0 0 0 0 0 0 0 0 0 0 0 0 0 0 0 0 0 0 0 0 0 0 0 0 0 0 0 0 0 0 0 0 0 0 0 0 0 0 0 0 0
0 0 0 0 0 0 0 0 0 0 0 0 0 0 0 0 0 0 0 0 0 0 0 0 0 0 0 0 0 0 0 0 0 0 0 0 0 0 0 0 0 0 0 0
0 0 0 0 0 0 0 0 0 0 0 0 0 0 0 0 0 0 0 0 0 0 0 0 0 0 0 0 0 0 0 0 0 0 0 0 0 0 0 0 0 0 0 0
0 0 0 0 0 0 0 0 0 0 0 0 0 0 0 0 0 0 0 0 0 0 0 0 0 0 0 0 0 0 0 0 0 0 0 0 0 0 0 0 0 0 0 0
0 0 0 0 0 0 0 0 0 0 0 0 0 0 0 0 0 0 0 0 0 0 0 0 0 0 0 0 0 0 0 0 0 0 0 0 0 0 0 0 0 0 0 0
0 0 0 0 0 0 0 0 0 0 0 0 0 0 0 0 0 0 0 0 0 0 0 0 0 0 0 0 0 0 0 0 0 0 0 0 0 0 0 0 0 0 0 0
0 0 0 0 0 0 0 0 0 0 0 0 0 0 0 0 0 0 0 0 0 0 0 0 0 0 0 0 0 0 0 0 0 0 0 0 0 0 0 0 0 0 0 0
0 0 0 0 0 0 0 0 0 0 0 0 0 0 0 0 0 0 0 0 0 0 0 0 0 0 0 0 0 0 0 0 0 0 0 0 0 0 0 0 0 0 0 0
0 0 0 0 0 0 0 0 0 0 0 0 0 0 0 0 0 0 0 0 0 0 0 0 0 0 0 0 0 0 0 0 0 0 0 0 0 0 0 0 0 0 0 0
0 0 0 0 0 0 0 0 0 0 0 0 0 0 0 0 0 0 0 0 0 0 0 0 0 0 0 0 0 0 0 0 0 0 0 0 0 0 0 0 0 0 0 0
0 0 0 0 0 0 0 0 0 0 0 0 0 0 0 0 0 0 0 0 0 0 0 0 0 0 0 0 0 0 0 0 0 0 0 0 0 0 0 0 0 0 0 0
0 0 0 0 0 0 0 0 0 0 0 0 0 0 0 0 0 0 0 0 0 0 0 0 0 0 0 0 0 0 0 0 0 0 0 0 0 0 0 0 0 0 0 0
0 0 0 0 0 0 0 0 0 0 0 0 0 0 0 0 0 0 0 0 0 0 0 0 0 0 0 0 0 0 0 0 0 0 0 0 0 0 0 0 0 0 0 0
0 0 0 0 0 0 0 0 0 0 0 0 0 0 0 0 0 0 0 0 0 0 0 0 0 0 0 0 0 0 0 0 0 0 0 0 0 0 0 0 0 0 0 0
0 0 0 0 0 0 0 0 0 0 0 0 0 0 0 0 0 0 0 0 0 0 0 0 0 0 0 0 0 0 0 0 0 0 0 0 0 0 0 0 0 0 0 0
0 0 0 0 0 0 0 0 0 0 0 0 0 0 0 0 0 0 0 0 0 0 0 0 0 0 0 0 0 0 0 0 0 0 0 0 0 0 0 0 0 0 0 0
0 0 0 0 0 0 0 0 0 0 0 0 0 0 0 0 0 0 0 0 0 0 0 0 0 0 0 0 0 0 0 0 0 0 0 0 0 0 0 0 0 0 0 0
0 0 0 0 0 0 0 0 0 0 0 0 0 0 0 0 0 0 0 0 0 0 0 0 0 0 0 0 0 0 0 0 0 0 0 0 0 0 0 0 0 0 0 0
0 0 0 0 0 0 0 0 0 0 0 0 0 0 0 0 0 0 0 0 0 0 0 0 0 0 0 0 0 0 0 0 0 0 0 0 0 0 0 0 0 0 0 0
Wind_Speed
8 5 6 11 12 13 12 8 6 5 6 10 13 12 11 12 12 13 14 14 14 13 12 11 11 10 10 10 9 8 7 7 6 5 4 3 3 1 0 1 2 3 4 5
6 3 3 9 11 10 9 7 6 6 6 10 10 8 10 12 12 12 12 12 12 13 12 12 11 11 11 10 10 9 9 9 8 7 6 5 4 3 2 0 1 2 3 4
4 2 4 5 7 6 5 6 6 6 7 10 9 9 10 10 11 11 11 11 11 11 11 10 11 11 11 10 10 10 10 10 9 8 7 7 6 5 4 3 2 2 1 1
2 4 2 5 2 2 3 3 4 4 6 8 8 6 5 9 10 10 10 10 10 10 10 10 10 10 9 9 10 11 11 10 10 9 9 8 8 7 6 6 5 5 5 4
2 2 4 3 3 2 2 2 3 5 7 9 8 2 7 12 11 10 9 8 8 8 8 9 9 9 9 10 10 11 11 10 10 10 9 9 9 8 7 7 7 6 6 7
3 2 2 5 5 2 4 2 2 4 7 9 9 5 8 13 12 10 9 8 8 7 8 8 8 7 8 9 10 10 10 9 9 9 9 9 9 8 7 6 6 6 7 7
3 2 3 6 6 5 4 5 3 3 5 7 8 8 9 11 9 8 8 7 7 7 7 7 7 7 8 9 9 8 7 8 8 8 8 8 8 7 7 6 6 6 6 6
4 4 3 10 7 5 3 4 1 2 5 7 8 8 9 9 9 9 8 8 8 7 6 6 6 6 7 7 6 5 5 6 7 7 7 6 7 7 7 7 6 7 6 6
3 2 5 7 4 1 0 1 1 3 5 6 7 8 10 10 9 9 9 8 7 7 6 5 5 5 5 5 3 3 4 5 5 6 6 7 7 7 6 6 6 6 6 6
6 6 6 7 6 4 3 2 2 4 5 5 7 8 9 9 9 9 9 8 8 8 7 6 5 4 4 3 2 2 4 4 4 5 6 6 5 5 6 6 6 6 6 6
7 5 7 9 9 7 5 3 3 3 3 4 6 8 9 9 9 9 8 8 7 7 7 7 6 4 3 2 2 2 3 4 4 5 5 5 5 5 5 6 6 6 5 5
5 8 8 9 11 9 7 5 3 2 3 3 5 7 8 8 8 8 8 8 8 8 7 7 6 5 2 1 2 3 3 4 4 4 4 4 4 5 5 4 6 8 9 8
1 7 6 6 10 10 7 5 3 2 3 4 5 6 7 8 8 8 8 9 9 8 8 7 6 4 2 0 1 1 3 3 3 3 4 4 4 4 5 5 5 8 11 12
5 8 8 8 9 9 7 5 3 2 2 3 5 5 6 7 7 8 9 9 9 8 7 6 5 4 3 0 2 1 3 3 3 3 3 4 4 4 4 4 4 5 7 10
10 8 7 9 10 9 7 6 5 4 2 2 3 5 6 7 8 8 8 8 8 6 7 6 5 5 3 1 2 3 2 2 3 3 3 3 3 3 4 5 4 4 4 5
13 9 8 11 12 11 9 8 6 4 3 2 3 5 6 7 7 7 7 8 7 7 7 7 6 5 2 1 3 3 3 3 1 2 2 3 3 3 3 4 4 4 5 5
16 15 13 13 13 12 10 8 6 5 4 3 3 5 6 6 6 7 8 8 6 5 6 7 7 6 1 2 3 3 3 4 3 1 2 2 2 2 3 3 4 4 4 5
16 15 13 13 12 11 10 8 7 6 5 3 3 4 5 6 7 8 8 8 6 4 6 8 8 6 1 2 3 2 3 3 3 2 2 2 2 2 2 2 3 3 3 3
14 14 13 12 11 10 9 9 8 7 5 4 4 4 5 5 6 7 7 7 7 7 8 9 10 6 1 2 2 3 3 3 3 2 2 3 2 2 1 1 2 2 2 2
14 13 13 12 10 9 8 8 7 6 6 5 5 4 5 4 5 6 7 5 4 6 9 10 9 5 3 1 3 3 4 4 3 3 3 2 2 2 2 1 1 1 2 2
15 14 13 12 10 9 9 8 8 7 6 6 6 5 5 5 5 5 6 4 5 7 9 9 6 5 4 2 4 4 4 4 4 3 3 3 3 3 2 2 2 1 1 2
15 14 14 12 11 10 9 9 8 8 7 7 6 6 5 5 5 5 5 3 5 8 8 6 5 7 8 7 5 5 5 5 4 4 4 4 3 3 3 3 2 2 2 2
13 14 14 13 13 12 10 9 9 8 8 8 7 7 6 5 4 5 5 3 5 9 8 6 8 11 11 7 5 5 6 6 5 5 5 4 4 4 3 3 3 3 3 3
11 12 13 13 12 12 12 11 10 8 8 8 7 7 6 5 5 5 5 4 5 8 7 6 9 11 10 5 4 5 6 6 6 5 5 5 4 4 4 4 3 3 3 4
7 10 11 12 12 11 11 11 10 10 9 7 8 8 7 6 6 5 5 5 5 7 6 6 7 9 7 4 4 4 5 5 5 5 5 5 5 5 5 4 4 4 4 4
3 5 7 9 9 8 8 8 8 8 8 8 7 7 7 6 7 6 5 6 7 6 6 5 6 6 5 5 4 5 5 5 6 6 7 6 6 6 5 5 6 5 5 5
2 3 4 6 7 8 7 8 8 9 8 8 8 7 7 6 6 7 7 6 6 5 5 5 5 5 5 5 5 5 5 5 5 6 7 6 6 6 6 7 6 6 5 6
Wind_Direction
101 94 59 45 32 36 45 37 37 17 16 357 348 351 359 6 16 25 28 30 30 32 32 31 32 35 35 33 34 44 55 53 50 52 49 47 52 46 77 257 252 247 241 240
131 128 58 52 34 32 37 25 17 25 33 348 340 355 10 15 21 27 27 31 34 36 35 33 34 37 40 41 42 47 52 49 46 48 47 44 43 37 41 36 267 252 247 246
125 156 210 61 26 19 30 26 5 7 345 331 342 358 8 9 15 23 26 29 33 36 36 34 35 35 40 43 47 52 54 52 49 52 53 50 53 55 51 52 50 35 352 306
146 196 106 77 62 320 318 27 18 346 333 335 330 328 15 20 13 16 18 21 25 27 31 34 36 39 46 50 51 53 53 52 50 52 55 55 55 54 51 52 53 43 36 32
202 131 123 164 183 237 294 56 16 351 354 352 332 217 67 28 9 3 3 5 11 14 22 32 32 30 43 51 53 52 50 49 50 52 52 52 53 51 49 53 55 52 45 40
208 217 148 135 134 165 245 142 62 351 356 356 351 43 31 1 352 353 354 357 359 5 17 27 27 25 39 48 51 49 46 48 49 48 47 47 47 45 47 52 53 59 55 44
217 216 123 133 144 191 234 85 72 358 354 355 5 2 340 338 346 348 348 349 348 356 12 14 13 20 38 46 49 47 47 48 47 46 45 42 42 40 41 46 46 45 48 44
215 217 162 148 169 211 53 80 56 0 358 351 344 342 346 349 352 352 351 352 348 349 360 6 7 14 40 44 42 46 48 48 46 42 38 37 40 38 36 33 40 38 35 36
239 42 83 168 188 123 55 248 6 356 351 339 336 344 348 350 353 354 351 350 347 343 342 357 15 10 24 40 35 44 50 46 43 49 47 38 37 38 38 34 33 32 27 22
230 209 188 190 197 199 214 256 315 323 327 330 336 342 347 349 350 351 350 349 342 337 338 351 2 0 4 20 14 27 45 41 42 47 56 58 48 44 43 35 32 29 22 15
225 181 181 202 204 198 199 224 258 296 322 335 337 344 346 345 349 348 344 343 338 337 335 333 340 345 352 352 340 17 48 55 54 57 59 66 70 49 43 51 28 12 9 5
207 184 185 183 187 189 195 208 229 281 319 342 342 342 343 345 346 343 341 340 339 339 332 330 336 339 351 334 314 355 45 51 52 59 63 66 85 105 84 52 41 33 24 11
110 160 153 139 164 178 192 199 210 255 311 330 341 344 341 342 344 343 344 346 342 337 332 331 333 341 2 356 254 9 53 62 62 54 63 67 66 71 100 119 110 67 45 39
154 156 159 164 167 176 182 185 198 227 276 316 331 338 341 342 348 351 350 345 338 336 340 342 343 0 11 121 167 127 85 78 70 72 66 68 70 67 63 67 81 83 73 54
187 191 172 164 165 172 178 185 201 218 248 304 331 337 343 345 347 347 346 343 338 351 2 359 2 13 13 153 163 138 117 103 90 86 87 83 84 82 79 75 69 60 63 71
184 188 175 172 174 177 183 194 209 215 227 280 319 336 339 336 336 343 352 352 349 359 2 358 1 1 359 169 154 138 112 84 82 119 117 105 97 89 82 78 74 65 50 37
179 187 186 184 184 187 193 200 209 212 219 248 302 324 326 330 340 353 356 353 347 352 1 1 355 349 338 182 167 151 140 139 169 167 110 102 97 89 83 80 76 73 65 43
195 194 192 189 187 190 195 199 204 211 223 237 282 300 318 331 340 345 344 341 345 2 17 6 355 337 331 179 173 161 158 154 159 127 128 129 113 104 88 83 86 91 98 95
199 196 197 198 195 195 196 199 202 207 211 220 244 281 308 319 329 333 334 340 352 357 360 354 337 327 352 159 181 184 177 169 168 160 158 148 188 154 136 110 101 98 97 90
198 196 197 197 196 199 199 199 200 203 208 216 233 260 285 309 325 326 326 333 3 353 335 335 330 335 335 175 214 206 191 191 192 184 185 194 192 183 178 162 136 126 124 117
197 195 194 194 193 198 202 200 199 204 205 210 231 253 278 299 309 313 318 324 359 354 333 319 324 338 330 319 235 224 207 202 204 204 198 201 202 201 202 195 190 188 168 152
199 196 196 196 195 198 199 202 203 206 207 212 226 243 260 276 290 299 296 304 331 339 327 325 337 344 330 299 244 224 216 210 208 206 207 209 211 212 211 208 206 196 190 182
202 200 199 199 201 203 199 201 205 208 213 218 225 233 246 266 282 288 296 325 331 333 321 326 337 328 317 278 239 222 216 213 210 207 209 211 212 214 214 209 205 196 198 190
207 205 204 204 205 205 202 204 207 211 216 223 228 234 241 250 256 252 268 289 300 309 311 327 327 325 309 274 249 231 222 215 211 211 206 208 211 211 209 207 203 199 195 189
215 210 206 204 205 207 211 208 207 211 217 224 229 228 231 238 253 268 276 286 298 300 307 319 320 317 306 294 270 247 233 223 217 210 207 208 208 211 210 206 204 199 195 193
236 221 215 212 213 211 209 206 206 208 213 221 228 227 224 224 233 244 255 266 275 284 294 306 316 312 318 314 296 272 252 227 212 216 217 213 210 208 209 207 204 201 197 193
304 246 230 228 225 221 217 211 213 214 215 221 229 227 222 220 221 229 239 250 261 270 282 294 306 314 316 309 295 279 262 247 234 225 219 215 213 210 208 205 202 197 191 189